This is the latest recevied weather packets stored in our database for station/object vk4zu-13. If no packets are shown the sender has not sent any weather packets the latest 10 day(s).
| Time | Temp. | Humidity | Pressure | Rain* | Wind** | Luminosity | Snow |
|---|---|---|---|---|---|---|---|
| 1777526279 | 20° C | 85% | 1025 hPa | 0 mm | - | 74 W/m² | - |
| 1777526219 | 20° C | 85% | 1024.8 hPa | 0 mm | - | 77 W/m² | - |
| 1777526151 | 20° C | 85% | 1025 hPa | 0 mm | - | 77 W/m² | - |
| 1777526087 | 20° C | 85% | 1025 hPa | 0 mm | - | 81 W/m² | - |
| 1777526025 | 20° C | 86% | 1024.8 hPa | 0 mm | - | 86 W/m² | - |
| 1777525962 | 20° C | 87% | 1024.9 hPa | 0 mm | - | 91 W/m² | - |
| 1777525895 | 20° C | 86% | 1024.8 hPa | 0 mm | - | 90 W/m² | - |
| 1777525829 | 20° C | 87% | 1024.9 hPa | 0.25 mm | - | 90 W/m² | - |
| 1777525769 | 20° C | 86% | 1024.9 hPa | 0.25 mm | - | 90 W/m² | - |
| 1777525708 | 20° C | 86% | 1024.8 hPa | 0.25 mm | - | 91 W/m² | - |
| 1777525649 | 20° C | 87% | 1024.9 hPa | 0.25 mm | - | 91 W/m² | - |
| 1777525587 | 20° C | 87% | 1024.8 hPa | 0.25 mm | - | 91 W/m² | - |
| 1777525525 | 20° C | 87% | 1024.9 hPa | 0.51 mm | - | 88 W/m² | - |
| 1777525462 | 20° C | 87% | 1024.9 hPa | 0.51 mm | - | 79 W/m² | - |
| 1777525403 | 20° C | 87% | 1024.9 hPa | 0.51 mm | - | 79 W/m² | - |
| 1777525276 | 20° C | 87% | 1024.9 hPa | 0.51 mm | - | 74 W/m² | - |
| 1777525211 | 19.44° C | 86% | 1024.9 hPa | 0.51 mm | - | 76 W/m² | - |
| 1777525142 | 19.44° C | 86% | 1025 hPa | 0.51 mm | - | 76 W/m² | - |
| 1777525080 | 20° C | 86% | 1025 hPa | 0.51 mm | - | 74 W/m² | - |
| 1777525002 | 20° C | 86% | 1025 hPa | 0.51 mm | - | 72 W/m² | - |
| 1777524936 | 20° C | 85% | 1025 hPa | 0.51 mm | - | 72 W/m² | - |
| 1777524877 | 20° C | 86% | 1024.9 hPa | 0.51 mm | - | 77 W/m² | - |
| 1777524815 | 20° C | 86% | 1024.9 hPa | 0.51 mm | - | 81 W/m² | - |
| 1777524749 | 20° C | 86% | 1024.9 hPa | 0.51 mm | - | 83 W/m² | - |
| 1777524680 | 20° C | 85% | 1024.9 hPa | 0.51 mm | - | 83 W/m² | - |
* Rain latest hour (hover to see other rain measurements)
** Current wind speed in m/s (hover to see current wind gust speed)